Погода в Котласе

Поиск расширенной информации на нашем сайте:

Полезная информация:

Новости сайта



02.01.2020
Опубликован Долгосрочный прогноз погоды по городам России и ближнего зарубежья на январь 2020 года.
Карты: Прогноз на январь и февраль 2020 года, Сравнение прогнозируемой аномалии приземной температуры воздуха на январь 2020 года по разным моделям.




Погода в Котласе - сегодня

Время (UTC), дата Ветер
(°,м/с) 
Видим.   Явления Облачность Т
(°С)
Тd
(°С)
f(%) Тe
(°С)
Pmin
(гПа)
dP
(гПа)
Po
(мм)
O2
(г/м3)
Тmin Tmax R s Состояние
почвы
15 02.07.20 290 (З) 20000 м    8/4 600 м кучево-дожд., средняя, верхняя 
[Cb cap|Ac trans|Ci fib]
+20.4 +12.2 59 +25  1006.6  1.2  750  279    +22.7  0.0     
18 02.07.20 220 (ЮЗ) 20000 м  {ливн. осадки}  4/1 600 м средняя 
[Cu hum|Ac trans]
+17.2 +12.9 76 +24  1007.7  1.1  751  282           
21 02.07.20 210 (ЮЗ) 10 км    9/0 средняя, верхняя 
[Ac trans|Ci fib]
+13.5 +12 91 +19  1008.6  0.8  751  286           
00 03.07.20 190 (Ю) 20000 м    6/0 средняя, верхняя 
[Ac trans|Ci fib]
+10 +9.4 96 +11  1009.7  752  291           
03 03.07.20 160 (Ю) 20000 м    4/0 средняя, верхняя 
[Ac trans|Ci fib]
+16 +13.7 86 +23  1010.4  0.9  753  284  +10    0.0    сухая 
06 03.07.20 130 (ЮВ) 20000 м    3/1 1000 м верхняя 
[Cu hum|Ci fib]
+21.2 +13.8 63 +28  1010.6  0.3  753  279           
09 03.07.20 140 (ЮВ) 20000 м    5/5 600 м кучево-дожд. 
[Cb cap]
+23.8 +14.1 55 +31  1011  0.4  753  276           
12 03.07.20 180 (Ю) 20000 м    5/3 1000 м средняя 
[Cu hum|Ac trans]
+25.6 +14.4 50 +33  1010.8  -0.2  753  275           
15 03.07.20 200 (Ю) 20000 м    6/1 1000 м средняя, верхняя 
[Cu hum|Ac trans|Ci fib]
+23.9 +15.4 59 +33  1010.8  753  276    +25.6       
18 03.07.20 180 (Ю) 20000 м    4/1 1000 м средняя, верхняя 
[Cu hum|Ac trans|Ci fib]
+20.3 +15.1 72 +29  1011  0.1  753  279           
21 03.07.20 160 (Ю) 10 км    8/3 600 м средняя, верхняя 
[Sc|Ac trans|Ci fib]
+17 +15.5 91 +27  1011.1  0.1  753  282           
00 04.07.20 180 (Ю) 20000 м    10/4 600 м средняя, верхняя 
[Sc|Ac trans|Ci fib]
+15.8 +15.1 96 +26  1010.1  -1  753  283           
03 04.07.20 190 (Ю) 10 км  слаб. ливневой дождь  10/4 600 м кучево-дожд., средняя, верхняя 
[Cb cap|Ac trans|Ci fib]
+18.1 +16.8 92 +31  1010.1  753  281  +15.6    0.0    сухая 
06 04.07.20 220 (ЮЗ) 20000 м  {ливн. осадки}  10/8 500 м средняя 
[Sc|Ac und]
+20.4 +17.8 85 +34  1010.3  0.3  753  278           
09 04.07.20 220 (ЮЗ) 20000 м    8/3 600 м верхняя 
[Cu hum|Ci fib]
+23.9 +15.7 60 +34  1010.1  -0.2  753  276           
12 04.07.20 290 (З) 20000 м    9/3 1000 м средняя, верхняя 
[Cu hum|Ac trans|Ci fib]
+23.9 +13.8 53 +30  1010  -0.1  753  276           
15 04.07.20 260 (З) 20000 м    6/3 1000 м средняя, верхняя 
[Sc|Ac trans|Ci fib]
+24.2 +12.6 48 +29  1009.5  -0.5  752  276    +25.6  0.0     
18 04.07.20 230 (ЮЗ) 20000 м    4/0 средняя, верхняя 
[Ac trans|Ci fib]
+19.6 +14.2 71 +28  1009.4  -0.2  752  280           
21 04.07.20 200 (Ю) 10 км    6/0 верхняя 
[Ci fib]
+12.1 +11.8 98 +17  1009.2  -0.3  752  288           
00 05.07.20 140 (ЮВ) 4000 м  дымка  6/0 верхняя 
[Ci fib]
+11.2 +10.6 96 +13  1009.3  0.1  752  289           
03 05.07.20 150 (ЮВ) 20000 м    9/0 верхняя 
[Ci fib]
+17.4 +14.8 85 +26  1009.3  0.1  752  282  +10.7        сухая 
06 05.07.20 150 (ЮВ) 20000 м    8/1 1000 м верхняя 
[Cu hum|Ci fib]
+23.3 +16.4 65 +34  1009.1  -0.1  752  276           
09 05.07.20 150 (ЮВ) 20000 м    8/3 600 м верхняя 
[Cu hum|Ci fib]
+25.4 +16.3 57 +36  1008.3  -0.7  751  274           
12 05.07.20 210 (ЮЗ) 20000 м    6/4 600 м верхняя 
[Cu hum|Ci fib]
+27 +16.4 52 +38  1007  -1.3  750  272           
15 05.07.20 180 (Ю) 20000 м    4/3 600 м верхняя 
[Cu hum|Ci fib]
+26.5 +15.9 52 +37  1006.4  -0.6  750  272    +27.5       
Время (UTC), дата Ветер
(°,м/с) 
Видим.   Явления Облачность Т
(°С)
Тd
(°С)
f(%) Тe
(°С)
Pmin
(гПа)
dP
(гПа)
Po
(мм)
O2
(г/м3)
Тmin Tmax R s Состояние
почвы

Для получения пояснительной информации подведите курсор к названию столбца.

ПОГОДА в Котласе - архив

Всё, что Вы хотите узнать о погоде в Котласе - удобно и подробно!

Выберите нужную дату (начиная с 1 января 2019* года) и нажмите кнопку "Найти".
Будут отображены архивные сводки погоды по пункту Котлас, начиная с указанной даты.


Отображать данные в формате CSV (для использования в таблицах Excel)


Внимание! Наш архив погоды предназначен исключительно для личного некоммерческого использования в познавательных целях. Если Вам необходимы официальные справки о состоянии погоды (для производственных, юридических, коммерческих и т.п. целей), обращайтесь в органы Росгидромета.

*Примечание: данная дата относится к архиву по метеостанциям СССР (Россия, СНГ, Балтия).
Архив по метеостанциям Зарубежной Европы и Азии (кроме Китая) хранится 10 дней, по другим регионам земного шара (Китай, Африка, Америка, Австралия, Океания) - 1 день.

Котлас - район местоположения метеостанции


Название, широта, долгота, высота метеостанции:
Котлас 61.2°ш. 46.7°д. 56 м над ур. моря [Российская Федерация]

Дополнительная информация

В oтличие oт бoльшинства пoгoдных сайтoв мы публикуем пoдрoбную метеoинфoрмацию в детальнoм прoфессиoнальнoм фoрмате.

Характеристики температуры и влажнoсти вoздуха измеряются на высoте 2 м в тени вдали oт зданий и деревьев.
Скoрoсть ветра измеряется на высoте 10 м (на урoвне рoста челoвека скoрoсть ветра ниже в 1.5-2 раза). Если метеoстанция нахoдится в гoрoде или в лесу, тo скoрoсть ветра занижена на 2-4 м/с пo сравнению с oткрытым местoм. Скoрoсть ветра над акватoриями крупных рек и oзёр, а также на вершинах хoлмoв на 2-5 м/с выше, чем в oбычных услoвиях.
Атмoсфернoе давление в разных тoчках местнoсти мoжет значительнo oтличаться oт давления на метеoстанции, в зависимoсти oт услoвий рельефа (при пoдъёме на 10 м давление пoнижается примернo на 1 мм рт.ст.).